AEZ2383 LIPE-LIEE

Flight info

Callsign AEZ2383
Flight time 0h 55m
Altitude 35000
Route LOMED L12 MAREL/N0462F370 DCT ELB DCT NEMIT DCT LABOM DCT DEXUL Q125 KOVAS
Aircraft B738/M-SDE2E3FGHIRWXY/LB1

Departure

Time 2026-05-09 05:32
Airport Bologna Guglielmo Marconi Airport (LIPE)

Arrival

Time 2026-05-09 06:27
Airport Cagliari Elmas Airport (LIEE)
Time Latitude Longitude Altitude Speed Heading
2026-05-09 05:22 44.53069 11.29315 129 ft 0 kts 206°
2026-05-09 05:26 44.53078 11.29322 124 ft 4 kts 202°
2026-05-09 05:26 44.53103 11.29332 127 ft 4 kts 181°
2026-05-09 05:27 44.53128 11.29326 127 ft 4 kts 139°
2026-05-09 05:27 44.53137 11.29310 129 ft 1 kts 116°
2026-05-09 05:27 44.53138 11.29307 129 ft 0 kts 116°
2026-05-09 05:29 44.53138 11.29308 129 ft 1 kts 117°
2026-05-09 05:29 44.53119 11.29360 125 ft 11 kts 117°
2026-05-09 05:29 44.53070 11.29497 128 ft 20 kts 117°
2026-05-09 05:29 44.53004 11.29681 128 ft 22 kts 117°
2026-05-09 05:30 44.52987 11.29856 125 ft 17 kts 108°
2026-05-09 05:30 44.52937 11.30006 127 ft 17 kts 117°
2026-05-09 05:30 44.52880 11.30167 127 ft 19 kts 110°
2026-05-09 05:30 44.52919 11.30324 125 ft 19 kts 26°
2026-05-09 05:31 44.53030 11.30290 126 ft 19 kts 301°
2026-05-09 05:31 44.53176 11.29887 126 ft 81 kts 297°
2026-05-09 05:31 44.53526 11.28911 124 ft 141 kts 297°
2026-05-09 05:31 44.53995 11.27497 348 ft 170 kts 293°
2026-05-09 05:32 44.54505 11.26003 979 ft 173 kts 296°
2026-05-09 05:32 44.55103 11.24493 1704 ft 180 kts 298°
2026-05-09 05:32 44.55708 11.22956 2482 ft 181 kts 300°
2026-05-09 05:32 44.56349 11.21275 2849 ft 210 kts 298°
2026-05-09 05:33 44.57051 11.19354 3069 ft 233 kts 297°
2026-05-09 05:33 44.57807 11.17269 3521 ft 244 kts 297°
2026-05-09 05:33 44.58699 11.15230 4114 ft 251 kts 315°
2026-05-09 05:33 44.60254 11.14033 4615 ft 264 kts 350°
2026-05-09 05:34 44.62086 11.14159 5374 ft 268 kts 18°
2026-05-09 05:34 44.63676 11.15508 6193 ft 272 kts 45°
2026-05-09 05:34 44.64644 11.17793 6960 ft 278 kts 74°
2026-05-09 05:34 44.64714 11.20496 7699 ft 282 kts 104°
2026-05-09 05:35 44.63805 11.22906 8431 ft 285 kts 136°
2026-05-09 05:35 44.62136 11.24361 9193 ft 285 kts 160°
2026-05-09 05:35 44.60273 11.25339 9940 ft 288 kts 161°
2026-05-09 05:35 44.58379 11.26367 10497 ft 299 kts 160°
2026-05-09 05:36 44.56372 11.27500 10665 ft 323 kts 159°
2026-05-09 05:36 44.54161 11.28456 10816 ft 344 kts 176°
2026-05-09 05:36 44.51746 11.28067 10981 ft 360 kts 200°
2026-05-09 05:36 44.49376 11.26756 11292 ft 373 kts 204°
2026-05-09 05:37 44.46965 11.25325 11842 ft 378 kts 204°
2026-05-09 05:37 44.44527 11.23887 12571 ft 381 kts 204°
2026-05-09 05:37 44.42064 11.22459 13216 ft 385 kts 204°
2026-05-09 05:37 44.39599 11.21054 13859 ft 390 kts 204°
2026-05-09 05:38 44.37073 11.19624 14444 ft 394 kts 204°
2026-05-09 05:38 44.34498 11.18171 15116 ft 396 kts 204°
2026-05-09 05:38 44.31968 11.16742 15768 ft 399 kts 204°
2026-05-09 05:38 44.29385 11.15281 16427 ft 402 kts 204°
2026-05-09 05:39 44.26751 11.13793 17077 ft 405 kts 204°
2026-05-09 05:39 44.24133 11.12317 17697 ft 408 kts 204°
2026-05-09 05:39 44.21518 11.10844 18308 ft 412 kts 204°
2026-05-09 05:39 44.18819 11.09326 18882 ft 414 kts 205°
2026-05-09 05:40 44.16142 11.07822 19427 ft 417 kts 205°
2026-05-09 05:40 44.13478 11.06327 19944 ft 419 kts 205°
2026-05-09 05:40 44.10729 11.04786 20462 ft 422 kts 205°
2026-05-09 05:40 44.08033 11.03277 20933 ft 424 kts 205°
2026-05-09 05:41 44.05281 11.01737 21392 ft 428 kts 205°
2026-05-09 05:41 44.02478 11.00171 21909 ft 430 kts 205°
2026-05-09 05:41 43.99650 10.98728 22377 ft 434 kts 203°
2026-05-09 05:41 43.96819 10.97404 22819 ft 437 kts 202°
2026-05-09 05:42 43.93883 10.96061 23260 ft 440 kts 202°
2026-05-09 05:42 43.91006 10.94736 23672 ft 442 kts 203°
2026-05-09 05:42 43.88083 10.93369 23994 ft 445 kts 204°
2026-05-09 05:42 43.85143 10.91980 24315 ft 448 kts 204°
2026-05-09 05:43 43.82191 10.90579 24675 ft 449 kts 204°
2026-05-09 05:43 43.79229 10.89167 25026 ft 451 kts 204°
2026-05-09 05:43 43.76254 10.87747 25362 ft 454 kts 204°
2026-05-09 05:43 43.73262 10.86320 25695 ft 456 kts 204°
2026-05-09 05:44 43.70254 10.84891 25978 ft 458 kts 204°
2026-05-09 05:44 43.67226 10.83454 26199 ft 463 kts 205°
2026-05-09 05:44 43.64176 10.82006 26481 ft 465 kts 205°
2026-05-09 05:44 43.61108 10.80554 26806 ft 466 kts 205°
2026-05-09 05:45 43.58035 10.79096 27135 ft 468 kts 205°
2026-05-09 05:45 43.54954 10.77636 27420 ft 470 kts 205°
2026-05-09 05:45 43.51863 10.76175 27757 ft 470 kts 205°
2026-05-09 05:45 43.48770 10.74715 28168 ft 469 kts 205°
2026-05-09 05:46 43.45692 10.73262 28584 ft 468 kts 205°
2026-05-09 05:46 43.42616 10.71818 28974 ft 467 kts 206°
2026-05-09 05:46 43.39542 10.70381 29332 ft 467 kts 206°
2026-05-09 05:46 43.36468 10.68948 29765 ft 466 kts 206°
2026-05-09 05:47 43.33394 10.67516 30179 ft 465 kts 206°
2026-05-09 05:47 43.30332 10.66089 30510 ft 464 kts 207°
2026-05-09 05:47 43.27284 10.64670 30895 ft 462 kts 207°
2026-05-09 05:47 43.24245 10.63254 31330 ft 459 kts 207°
2026-05-09 05:48 43.21226 10.61847 31782 ft 456 kts 208°
2026-05-09 05:48 43.18235 10.60452 32205 ft 453 kts 208°
2026-05-09 05:48 43.15250 10.59062 32590 ft 452 kts 208°
2026-05-09 05:48 43.12283 10.57682 32965 ft 449 kts 209°
2026-05-09 05:49 43.09341 10.56317 33458 ft 444 kts 209°
2026-05-09 05:49 43.06437 10.54975 34060 ft 437 kts 209°
2026-05-09 05:49 43.03564 10.53646 34420 ft 435 kts 209°
2026-05-09 05:49 43.00734 10.52331 34569 ft 437 kts 209°
2026-05-09 05:50 42.97844 10.50986 34716 ft 440 kts 209°
2026-05-09 05:50 42.94951 10.49647 35033 ft 438 kts 209°
2026-05-09 05:50 42.89166 10.46978 35091 ft 438 kts 209°
2026-05-09 05:51 42.83380 10.44315 35088 ft 439 kts 209°
2026-05-09 05:51 42.77584 10.41653 35095 ft 440 kts 209°
2026-05-09 05:52 42.71767 10.39028 35082 ft 442 kts 207°
2026-05-09 05:52 42.65826 10.36753 35083 ft 444 kts 205°
2026-05-09 05:53 42.59860 10.34572 35086 ft 443 kts 205°
2026-05-09 05:53 42.53914 10.32360 35073 ft 443 kts 205°
2026-05-09 05:54 42.47984 10.30135 35082 ft 442 kts 205°
2026-05-09 05:54 42.42060 10.27913 35079 ft 442 kts 205°
2026-05-09 05:55 42.36143 10.25700 35079 ft 441 kts 206°
2026-05-09 05:55 42.30315 10.23238 35082 ft 437 kts 208°
2026-05-09 05:56 42.24594 10.20622 35082 ft 437 kts 208°
2026-05-09 05:56 42.18801 10.17999 35077 ft 436 kts 208°
2026-05-09 05:57 42.13081 10.15453 35066 ft 435 kts 207°
2026-05-09 05:57 42.07331 10.12915 35072 ft 434 kts 207°
2026-05-09 05:58 42.01589 10.10388 35077 ft 434 kts 207°
2026-05-09 05:58 41.95854 10.07868 35043 ft 433 kts 207°
2026-05-09 05:59 41.90136 10.05361 35066 ft 432 kts 207°
2026-05-09 05:59 41.84423 10.02860 35077 ft 431 kts 207°
2026-05-09 06:00 41.78721 10.00368 35080 ft 431 kts 207°
2026-05-09 06:00 41.73024 9.97883 35068 ft 431 kts 207°
2026-05-09 06:01 41.67329 9.95403 35073 ft 430 kts 207°
2026-05-09 06:01 41.61628 9.92925 35071 ft 431 kts 207°
2026-05-09 06:02 41.55928 9.90453 35041 ft 431 kts 207°
2026-05-09 06:02 41.50231 9.87987 35065 ft 430 kts 207°
2026-05-09 06:03 41.44535 9.85525 35072 ft 430 kts 207°
2026-05-09 06:03 41.38845 9.83071 35080 ft 430 kts 206°
2026-05-09 06:04 41.33158 9.80623 35057 ft 429 kts 206°
2026-05-09 06:04 41.27486 9.78187 35062 ft 428 kts 206°
2026-05-09 06:05 41.21823 9.75757 35075 ft 427 kts 206°
2026-05-09 06:05 41.16164 9.73334 35074 ft 427 kts 206°
2026-05-09 06:06 41.11463 9.71324 35070 ft 427 kts 206°
2026-05-09 06:06 41.04886 9.68517 35077 ft 427 kts 206°
2026-05-09 06:07 40.99226 9.66107 35082 ft 428 kts 206°
2026-05-09 06:07 40.94475 9.64086 35069 ft 428 kts 206°
2026-05-09 06:08 40.87884 9.61290 35068 ft 428 kts 206°
2026-05-09 06:08 40.83127 9.59275 35082 ft 429 kts 206°
2026-05-09 06:09 40.77439 9.56869 35078 ft 430 kts 206°
2026-05-09 06:09 40.71772 9.54475 34852 ft 434 kts 206°
2026-05-09 06:10 40.68883 9.53255 34312 ft 433 kts 205°
2026-05-09 06:10 40.66020 9.52051 33554 ft 433 kts 205°
2026-05-09 06:10 40.63152 9.50845 32782 ft 433 kts 205°
2026-05-09 06:10 40.60280 9.49637 32045 ft 433 kts 205°
2026-05-09 06:11 40.57411 9.48433 31280 ft 434 kts 204°
2026-05-09 06:11 40.54488 9.47209 30445 ft 437 kts 204°
2026-05-09 06:11 40.51901 9.46117 29652 ft 438 kts 204°
2026-05-09 06:11 40.49104 9.44945 28729 ft 440 kts 203°
2026-05-09 06:12 40.46371 9.43806 27848 ft 441 kts 203°
2026-05-09 06:12 40.43369 9.42554 26872 ft 443 kts 203°
2026-05-09 06:12 40.40428 9.41325 25873 ft 445 kts 203°
2026-05-09 06:12 40.37499 9.40082 25167 ft 440 kts 204°
2026-05-09 06:13 40.34625 9.38717 24312 ft 438 kts 205°
2026-05-09 06:13 40.31797 9.37281 23537 ft 435 kts 206°
2026-05-09 06:13 40.28997 9.35833 22767 ft 429 kts 206°
2026-05-09 06:13 40.26236 9.34407 22039 ft 425 kts 206°
2026-05-09 06:14 40.23503 9.33007 21346 ft 420 kts 205°
2026-05-09 06:14 40.20794 9.31633 20689 ft 414 kts 205°
2026-05-09 06:14 40.18119 9.30283 20012 ft 411 kts 205°
2026-05-09 06:14 40.15460 9.28947 19358 ft 408 kts 205°
2026-05-09 06:15 40.12819 9.27623 18680 ft 406 kts 204°
2026-05-09 06:15 40.10193 9.26307 17940 ft 405 kts 204°
2026-05-09 06:15 40.07578 9.24999 17243 ft 402 kts 204°
2026-05-09 06:15 40.04982 9.23701 16560 ft 398 kts 204°
2026-05-09 06:16 40.02404 9.22415 15909 ft 395 kts 204°
2026-05-09 06:16 39.99846 9.21139 15265 ft 392 kts 204°
2026-05-09 06:16 39.97303 9.19870 14617 ft 390 kts 204°
2026-05-09 06:16 39.94778 9.18612 13967 ft 388 kts 204°
2026-05-09 06:17 39.92258 9.17358 13248 ft 387 kts 204°
2026-05-09 06:17 39.89791 9.16135 12590 ft 382 kts 204°
2026-05-09 06:17 39.87286 9.14890 11908 ft 380 kts 205°
2026-05-09 06:17 39.84810 9.13736 11353 ft 376 kts 200°
2026-05-09 06:18 39.82333 9.12867 11182 ft 362 kts 198°
2026-05-09 06:18 39.79924 9.12107 11029 ft 349 kts 198°
2026-05-09 06:18 39.77606 9.11381 10862 ft 336 kts 198°
2026-05-09 06:18 39.75380 9.10670 10731 ft 324 kts 199°
2026-05-09 06:19 39.73227 9.09967 10579 ft 314 kts 199°
2026-05-09 06:19 39.71147 9.09280 10461 ft 303 kts 199°
2026-05-09 06:19 39.69167 9.08622 10347 ft 293 kts 199°
2026-05-09 06:19 39.67195 9.07966 10207 ft 284 kts 200°
2026-05-09 06:20 39.65334 9.07349 10086 ft 276 kts 200°
2026-05-09 06:20 39.63424 9.06975 9672 ft 286 kts 187°
2026-05-09 06:20 39.61411 9.07035 9166 ft 293 kts 183°
2026-05-09 06:20 39.59353 9.07143 8648 ft 299 kts 182°
2026-05-09 06:21 39.57254 9.07221 8108 ft 304 kts 182°
2026-05-09 06:21 39.55118 9.07277 7555 ft 310 kts 182°
2026-05-09 06:21 39.53009 9.06894 6949 ft 304 kts 204°
2026-05-09 06:21 39.51192 9.05594 6503 ft 296 kts 216°
2026-05-09 06:22 39.49547 9.04048 6038 ft 289 kts 218°
2026-05-09 06:22 39.47966 9.02495 5617 ft 282 kts 217°
2026-05-09 06:22 39.46418 9.00985 5201 ft 276 kts 216°
2026-05-09 06:22 39.44887 8.99515 4814 ft 275 kts 216°
2026-05-09 06:23 39.43362 8.98067 4403 ft 269 kts 215°
2026-05-09 06:23 39.41864 8.96655 4007 ft 264 kts 214°
2026-05-09 06:23 39.40397 8.95274 3713 ft 256 kts 213°
2026-05-09 06:23 39.39018 8.93974 3630 ft 235 kts 213°
2026-05-09 06:24 39.37640 8.93027 3259 ft 222 kts 188°
2026-05-09 06:24 39.36144 8.93299 2624 ft 217 kts 152°
2026-05-09 06:24 39.34895 8.94294 2308 ft 207 kts 142°
2026-05-09 06:24 39.33798 8.95426 2047 ft 196 kts 137°
2026-05-09 06:25 39.32801 8.96559 1791 ft 186 kts 137°
2026-05-09 06:25 39.31854 8.97653 1547 ft 179 kts 136°
2026-05-09 06:25 39.30967 8.98680 1339 ft 162 kts 137°
2026-05-09 06:25 39.30167 8.99608 1091 ft 148 kts 137°
2026-05-09 06:26 39.29418 9.00475 946 ft 143 kts 137°
2026-05-09 06:26 39.28673 9.01341 770 ft 146 kts 137°
2026-05-09 06:26 39.27915 9.02228 590 ft 148 kts 137°
2026-05-09 06:26 39.27152 9.03114 381 ft 147 kts 138°
2026-05-09 06:27 39.26393 9.03991 122 ft 147 kts 138°
2026-05-09 06:27 39.25641 9.04858 17 ft 137 kts 137°
2026-05-09 06:27 39.25079 9.05515 15 ft 50 kts 137°
2026-05-09 06:27 39.25067 9.05646 15 ft 12 kts 63°
2026-05-09 06:28 39.25118 9.05754 14 ft 17 kts 60°
2026-05-09 06:28 39.25150 9.05886 14 ft 13 kts 117°
2026-05-09 06:28 39.25178 9.05984 14 ft 13 kts 51°
2026-05-09 06:28 39.25222 9.06019 14 ft 7 kts 341°
2026-05-09 06:29 39.25252 9.05991 14 ft 4 kts 323°
2026-05-09 06:29 39.25262 9.05981 14 ft 0 kts 322°